Starlink 6055

operational
NORAD ID: 56467 Int'l Des: 2023-064 Owner: SPXS Country: US Constellation: starlink
LEOCIRCULAR

关于 Starlink 6055

正在加载描述...

实时位置

正在加载3D地球...

即将过境

高度历史

Altitude vs Time

uPlot chart will show altitude changes over time

两行轨道根数

1 56467U 23064V 25257.15899681 .00000097 00000-0 15906-4 0 9992
2 56467 69.9992 209.6754 0003166 270.2045 89.8752 14.98329461129292
Epoch: Sep 14, 2025 • Age: 30 hours

当前状态

高度 574.8 km
速度 7.57 km/s
星下点 -3.25°S, 108.94°W
发射日期 May 10, 2023
运行时间 2.3 years
类型 internet

技术详情

分类 Payload
质量 305.00 kg
干质量 290.00 kg
总质量 305.00 kg
长度 0.20 m
直径 2.80 m
跨度 9.00 m
形状 Box + pan
制造商 SPXS
平台类型 Starlink
阶段状态 In Orbit
所有者/国家 SPXS/US

大型星座

Loading constellations...